Деркул

Казахстан     51°15′10″N   51°17′48″E
темп.,
°C
ветер,
м/с
пор.,
м/с
влажн.,
%
обл.,
%
осадки,
мм/ч
давл.,
гПа
погр.,
м
1 марта, пн
пн123:00−16зсз479565 0.0 1014115
02:00−18зсз479519 0.0 1015106
05:00−18сз449540 0.0 101775
08:00−16сз489590 0.1 1018210
11:00−15сз479175 0.1 1020257
14:00−14сз469012 0.0 1022325
17:00−14сз47909 0.0 1022356
20:00−19зсз34951 0.0 102434
2 марта, вт
вт223:00−20з33960 0.0 102420
02:00−19зюз34970 0.0 102330
05:00−19юз449720 0.0 102361
08:00−16юз5109575 0.0 1020222
11:00−12юз7119488 0.0 1018329
14:00−6юз91493100 0.1 1014540
17:00−3юз91594100 0.7 1012856
20:00−3юз91595100 0.8 1009727
3 марта, ср
ср323:00−2юз81495100 1.9 1008660
02:00−2юз71396100 0.6 1005540
05:00−2юз61097100 1.4 1004438
08:00−2юз4897100 0.8 1003308
11:00−1з3499100 1.6 1004257
14:000ссз359797 0.4 1004319
17:00−2сз469291 0.4 1005308
20:00−7сз47940 0.0 1006122
4 марта, чт
чт423:00−8сз47940 0.0 1009126
02:00−7сз5119250 0.0 1010247
05:00−11сз489329 0.0 1012137
08:00−13зсз47940 0.0 1014109
11:00−10з47900 0.0 1015255
14:00−7юз6119218 0.0 1014365
17:00−4зюз9139155 0.1 1013754
20:00−2юз81493100 0.3 1012916
5 марта, пт
пт523:00−1юз9158899 0.3 1011886
02:00−2юз9188492 0.0 1010566
05:00−2юз9178594 0.0 1010552
08:00−3юз8178819 0.0 1010482
11:00−2юз8149035 0.0 1011537
14:000юз8139397 0.0 1012562
17:000юз7129799 0.4 1012660
20:00+1зюз61294100 0.1 1013636